OneWeb SL0508

operational
NORAD ID: 54126 Int'l Des: 2022-138 Owner: ONEWEBN Country: UK Constellation: oneweb
LEOCIRCULARPOLARONEWEB_TYPE

关于 OneWeb SL0508

正在加载描述...

实时位置

正在加载3D地球...

即将过境

高度历史

Altitude vs Time

uPlot chart will show altitude changes over time

两行轨道根数

1 54126U 22138P 25306.42499644 .00000065 00000-0 13108-3 0 9999
2 54126 87.9239 350.0968 0002145 105.6627 254.4742 13.19727211146922
Epoch: Nov 2, 2025 • Age: 23 hours

当前状态

高度 1187.8 km
速度 7.26 km/s
星下点 25.40°N, 6.18°W
发射日期 Oct 22, 2022
运行时间 3 years
类型 internet

技术详情

分类 Payload
质量 148.00 kg
干质量 140.00 kg
总质量 148.00 kg
长度 1.30 m
直径 1.00 m
跨度 5.00 m
形状 Trapezoid+2 pan
制造商 ONEWUS
平台类型 ARROW
阶段状态 In Orbit
所有者/国家 ONEWEBN/UK

大型星座

Loading constellations...